星链-30787 (STARLINK-30787 )

导读

STARLINK-30787是美国SpaceX公司星链(Starlink)星座中的一颗卫星,于2023年10月22日发射升空。星链项目旨在构建全球卫星互联网,为全球各地提供高速宽带服务,已扩展至航空、航运、应急通信等多个领域。该卫星属于星链星座部署中的一员,助力SpaceX推进二代星系统组网,进一步完善全球卫星互联网覆盖,服务数百万注册用户,推动太空互联网商业化发展。

基本信息
目录编号:
58128
目录名称:
STARLINK-30787
国际标识:
2023-162L
轨道中心:
EARTH
卫星名称:
星链-30787
卫星全名:
星链-30787 (STARLINK-30787 )
卫星状态:
在轨 (已飞行970 天)
发射日期:
2023-10-22 UTC
国别 :
美国 (US)
星等 :
--
轨道信息
数据来源 国际轨道数据
星历时间: 2026-06-16T22:42:46+0800
1天前
查看轨道信息
半长轴: 6861.199km
偏心率: 0.000175
轨道倾角: 43.010°
近地点辐角 267.497°
升交点赤经 290.631°
平近点角 92.568°
近地点: 481.861km
远地点: 484.263km
周期: 94.267分钟
每日圈数: 15.275759
详细信息
固有亮度:
5
最大亮度:
0.3
卫星平台:
Starlink v2.0 mini
覆盖范围:
全球
运营商:
太空探索技术公司
运营商所在国:
美国
制造商(研发单位):
太空探索技术公司
制造商所在国:
美国
使用方式:
暂无
卫星简介
星链(Starlink)计划是由太空探索技术公司(SpaceX)提出的一个巨型低轨卫星互联网星座项目,计划在2019年至2024年间在太空搭建由约1.2万颗卫星组成的“星链”网络,其中1584颗将部署在地球上空550千米处的近地轨道,并从2020年开始工作。该卫星仍在工作。
2D轨道图
3D轨道图
轨道高度分析图
轨道倾角分析图
轨道综合分析图
查看轨道综合分析图